Regional Weather Roundup
Issued by NWS

Home | Current Version | Previous Version | Graphics & Text | Print | Product List | Glossary Off
Versions: 1 2 3 4 5 6 7 8 9 10 11 12 13 14 15 16 17 18 19 20 21 22 23 24 25 26 27 28 29 30 31 32 33 34 35 36 37 38 39 40 41 42 43 44 45 46 47 48 49 50

859
ASUS43 KIND 190609
RWRIN

WEATHER ROUNDUP FOR INDIANA
NATIONAL WEATHER SERVICE INDIANAPOLIS IN
200 AM EDT SAT AUG 19 2017

NOTE: "FAIR" INDICATES FEW OR NO CLOUDS BELOW 12,000 FEET WITH NO
SIGNIFICANT WEATHER AND/OR OBSTRUCTIONS TO VISIBILITY.

* - STATION DOES NOT REPORT WEATHER SUCH AS PRECIPITATION OR FOG.

+ - STATION NOT QUALITY CONTROLLED BY THE NATIONAL WEATHER SERVICE.
    USE DATA WITH CAUTION...ESPECIALLY DEWPOINT AND RELATIVE
    HUMIDITY OBSERVATIONS.

INZ001>003-010>013-019-020-190700-
NORTHWEST INDIANA

CITY           SKY/WX    TMP DP  RH WIND       PRES   REMARKS
GARY /AIRPORT/ CLOUDY    73  63  69 N8        29.89S
KNOX *+        MOCLDY    63  61  94 CALM      29.88F
LA PORTE +     PTCLDY    63  62  95 CALM      29.89F
6HR MIN TEMP:  62; 6HR MAX TEMP:  75;

MICHIGAN CITY+ CLOUDY    63  63 100 CALM      29.89S
MONTICELLO +   PTCLDY    69  64  86 SW7       29.89S
6HR MIN TEMP:  64; 6HR MAX TEMP:  76;

RENSSELAER +   CLOUDY    66  61  82 SW6       29.90R
VALPARAISO     LGT RAIN  69  65  86 S8        29.89S
6HR MIN TEMP:  68; 6HR MAX TEMP:  78; 6HR PCP:  0.02;


$$

LMZ046-743>745-190700-
SOUTHERN LAKE MICHIGAN

STATION/POSITION TIME  TEMP    WIND        PRES    WAVE
                       AIR SEA DIR/SP/G            HT
                 (UTC) (F)     (DEG/KT/KT) (MB)    (FT)
BURNS HARBOR     0540   74     340/ 11/ 16 1012.2S
MICHIGAN CITY    0540   70     190/  3/  4   N/A
5NW MICH CITY    0600   73 74  330/ 12/ 17   N/A     1

$$

INZ004-005-014>016-021>024-190700-
NORTH CENTRAL INDIANA

CITY           SKY/WX    TMP DP  RH WIND       PRES   REMARKS
GOSHEN         MOCLDY    65  61  87 S3        29.89S
6HR MIN TEMP:  64; 6HR MAX TEMP:  76;

LOGANSPORT +   CLOUDY    64  63  94 S5        29.90F
PERU/GRISSOM   PTCLDY    66  65  97 S7        29.89F
6HR MIN TEMP:  66; 6HR MAX TEMP:  75;

ROCHESTER +    MOCLDY    72  64  78 SW5       29.90S
SOUTH BEND     CLEAR     63  63 100 CALM      29.88F
6HR MIN TEMP:  63; 6HR MAX TEMP:  76;

WARSAW +       MOCLDY    63  63 100 CALM      29.89F

$$

INZ006>009-017-018-025>027-190700-
NORTHEAST INDIANA

CITY           SKY/WX    TMP DP  RH WIND       PRES   REMARKS
AUBURN +       PTCLDY    63  61  94 CALM      29.91S
FORT WAYNE     PTCLDY    64  61  90 S5        29.91R
6HR MIN TEMP:  63; 6HR MAX TEMP:  76;

HUNTINGTON +   MOCLDY    66  65  96 SW3       29.91F
6HR MIN TEMP:  65; 6HR MAX TEMP:  75;

KENDALLVILLE + CLOUDY    63  63 100 CALM      29.91S

$$

INZ028-029-035-036-043>045-051>053-190700-
WEST CENTRAL INDIANA

CITY           SKY/WX    TMP DP  RH WIND       PRES   REMARKS
GREENCASTLE +  CLOUDY    64  63  94 CALM      29.94F
LAFAYETTE      PTCLDY    69  66  90 W5        29.89F
6HR MIN TEMP:  66; 6HR MAX TEMP:  77;

TERRE HAUTE    CLOUDY    69  64  84 CALM      29.93F
6HR MIN TEMP:  66; 6HR MAX TEMP:  79;


$$

INZ030>032-037>040-046>048-054>057-064-065-190700-
CENTRAL INDIANA

CITY           SKY/WX    TMP DP  RH WIND       PRES   REMARKS
CP ATTERBURY + PTCLDY    63  61  94 CALM      29.95F
FRANKFORT +    PTCLDY    70  65  86 SW6       29.93F
6HR MIN TEMP:  67; 6HR MAX TEMP:  78;

GREENWOOD *+   CLOUDY    66  63  88 CALM      29.96S
INDIANAPOLIS   CLOUDY    69  63  81 SW5       29.93S
6HR MIN TEMP:  69; 6HR MAX TEMP:  79;

-EAGLE CREEK   CLOUDY    71  62  73 S3        29.93S
6HR MIN TEMP:  71; 6HR MAX TEMP:  80;

KOKOMO +       MOCLDY    69  64  84 SW6       29.92F
6HR MIN TEMP:  67; 6HR MAX TEMP:  76;

MT COMFORT *+  CLOUDY    68  63  83 SW5       29.95S
SHELBYVILLE    CLOUDY    68  63  84 S5        29.94S
6HR MIN TEMP:  66; 6HR MAX TEMP:  79;

ZIONSVILLE +   CLOUDY    66  62  86 S5        29.94F
6HR MIN TEMP:  65; 6HR MAX TEMP:  75;


$$

INZ033-034-041-042-049-050-058-059-190700-
EAST CENTRAL INDIANA

CITY           SKY/WX    TMP DP  RH WIND       PRES   REMARKS
MUNCIE         PTCLDY    71  62  73 SW7       29.93S
6HR MIN TEMP:  69; 6HR MAX TEMP:  78;


$$

INZ060-061-067>069-081>083-085>088-190700-
SOUTHWEST INDIANA

CITY           SKY/WX    TMP DP  RH WIND       PRES   REMARKS
EVANSVILLE     CLOUDY    74  65  73 SW3       29.95F
6HR MIN TEMP:  72; 6HR MAX TEMP:  82;

HUNTINGBURG +  CLOUDY    70  67  90 S3        29.96F
6HR MIN TEMP:  68; 6HR MAX TEMP:  81;

WASHINGTON +   CLOUDY    74  63  66 MISG      29.94S
6HR MIN TEMP:  69; 6HR MAX TEMP:  81;


$$

INZ062-063-066-070>080-084-089>092-190700-
SOUTH CENTRAL AND SOUTHEAST INDIANA

CITY           SKY/WX    TMP DP  RH WIND       PRES   REMARKS
BEDFORD +      CLOUDY    70  63  78 CALM      29.95F
BLOOMINGTON    PTCLDY    71  63  75 SW5       29.95F
6HR MIN TEMP:  67; 6HR MAX TEMP:  79;

MADISON *+     CLOUDY    70  63  78 CALM      29.99S
NORTH VERNON + PTCLDY    66  64  94 CALM      29.97S
SEYMOUR +      PTCLDY    72  64  78 CALM      29.95F

$$





USA.gov is the U.S. government's official web portal to all federal, state and local government web resources and services.